Time,TemperatureF,DewpointF,PressureIn,WindDirection,WindDirectionDegrees,WindSpeedMPH,WindSpeedGustMPH,Humidity,HourlyPrecipIn,Conditions,Clouds,dailyrainin,SoftwareType,DateUTC
2013-01-14 00:03:00,14.0,4.0,30.31,WSW,258,0.0,0.0,63,0.00,,,0.00,,2013-01-14 06:03:00,
2013-01-14 00:12:00,14.0,4.0,30.31,WSW,258,0.0,0.0,63,0.00,,,0.00,,2013-01-14 06:12:00,
2013-01-14 00:22:00,14.0,4.0,30.31,WSW,258,0.0,0.0,63,0.00,,,0.00,,2013-01-14 06:22:00,
2013-01-14 00:33:00,12.0,3.0,30.31,WSW,258,0.0,0.0,66,0.00,,,0.00,,2013-01-14 06:33:00,
2013-01-14 00:42:00,12.0,3.0,30.31,WSW,258,0.0,0.0,66,0.00,,,0.00,,2013-01-14 06:42:00,
2013-01-14 00:53:00,12.0,3.0,30.31,WSW,258,0.0,1.0,66,0.00,,,0.00,,2013-01-14 06:53:00,
2013-01-14 01:02:00,12.0,3.0,30.31,WSW,258,0.0,0.0,66,0.00,,,0.00,,2013-01-14 07:02:00,
2013-01-14 01:12:00,12.0,3.0,30.31,WSW,258,0.0,0.0,66,0.00,,,0.00,,2013-01-14 07:12:00,
2013-01-14 01:22:00,12.0,3.0,30.32,WSW,258,0.0,0.0,66,0.00,,,0.00,,2013-01-14 07:22:00,
2013-01-14 01:32:00,12.0,3.0,30.32,WSW,258,0.0,0.0,65,0.00,,,0.00,,2013-01-14 07:32:00,
2013-01-14 01:42:00,12.0,3.0,30.32,WSW,258,0.0,0.0,65,0.00,,,0.00,,2013-01-14 07:42:00,
2013-01-14 01:53:00,12.0,3.0,30.32,WSW,258,0.0,0.0,65,0.00,,,0.00,,2013-01-14 07:53:00,
2013-01-14 02:02:00,12.0,3.0,30.32,WSW,258,0.0,1.0,66,0.00,,,0.00,,2013-01-14 08:02:00,
2013-01-14 02:12:00,12.0,3.0,30.32,WSW,258,0.0,1.0,66,0.00,,,0.00,,2013-01-14 08:12:00,
2013-01-14 02:22:00,11.0,2.0,30.33,WSW,258,0.0,0.0,67,0.00,,,0.00,,2013-01-14 08:22:00,
2013-01-14 02:32:00,11.0,2.0,30.33,WSW,258,0.0,0.0,67,0.00,,,0.00,,2013-01-14 08:32:00,
2013-01-14 02:42:00,11.0,2.0,30.33,WSW,258,0.0,0.0,67,0.00,,,0.00,,2013-01-14 08:42:00,
2013-01-14 02:53:00,11.0,2.0,30.34,WSW,258,0.0,0.0,67,0.00,,,0.00,,2013-01-14 08:53:00,
2013-01-14 03:02:00,11.0,2.0,30.34,WSW,258,0.0,0.0,67,0.00,,,0.00,,2013-01-14 09:02:00,
2013-01-14 03:12:00,11.0,2.0,30.34,WSW,258,0.0,0.0,67,0.00,,,0.00,,2013-01-14 09:12:00,
2013-01-14 03:22:00,11.0,3.0,30.36,WSW,258,0.0,0.0,68,0.00,,,0.00,,2013-01-14 09:22:00,
2013-01-14 03:33:00,11.0,3.0,30.36,WSW,258,0.0,0.0,68,0.00,,,0.00,,2013-01-14 09:33:00,
2013-01-14 03:42:00,11.0,3.0,30.36,WSW,258,0.0,0.0,68,0.00,,,0.00,,2013-01-14 09:42:00,
2013-01-14 03:53:00,11.0,3.0,30.36,WSW,258,0.0,0.0,68,0.00,,,0.00,,2013-01-14 09:53:00,
2013-01-14 04:02:00,11.0,3.0,30.36,WSW,258,0.0,0.0,68,0.00,,,0.00,,2013-01-14 10:02:00,
2013-01-14 04:12:00,11.0,3.0,30.36,WSW,258,0.0,0.0,68,0.00,,,0.00,,2013-01-14 10:12:00,
2013-01-14 04:22:00,10.0,2.0,30.36,WSW,258,0.0,0.0,69,0.00,,,0.00,,2013-01-14 10:22:00,
2013-01-14 04:32:00,10.0,2.0,30.36,WSW,258,0.0,0.0,70,0.00,,,0.00,,2013-01-14 10:32:00,
2013-01-14 04:42:00,10.0,2.0,30.36,WSW,258,0.0,0.0,70,0.00,,,0.00,,2013-01-14 10:42:00,
2013-01-14 04:53:00,10.0,2.0,30.35,WSW,258,0.0,0.0,69,0.00,,,0.00,,2013-01-14 10:53:00,
2013-01-14 05:02:00,10.0,2.0,30.35,WSW,258,0.0,0.0,70,0.00,,,0.00,,2013-01-14 11:02:00,
2013-01-14 05:12:00,10.0,2.0,30.35,WSW,258,0.0,0.0,70,0.00,,,0.00,,2013-01-14 11:12:00,
2013-01-14 05:22:00,10.0,2.0,30.35,WSW,258,0.0,0.0,70,0.00,,,0.00,,2013-01-14 11:22:00,
2013-01-14 05:32:00,10.0,2.0,30.35,WSW,258,0.0,0.0,70,0.00,,,0.00,,2013-01-14 11:32:00,
2013-01-14 05:42:00,10.0,2.0,30.35,WSW,258,0.0,0.0,70,0.00,,,0.00,,2013-01-14 11:42:00,
2013-01-14 05:53:00,9.0,2.0,30.36,WSW,258,0.0,0.0,71,0.00,,,0.00,,2013-01-14 11:53:00,
2013-01-14 06:03:00,9.0,2.0,30.37,WSW,258,0.0,0.0,72,0.00,,,0.00,,2013-01-14 12:03:00,
2013-01-14 06:12:00,9.0,2.0,30.37,WSW,258,0.0,0.0,72,0.00,,,0.00,,2013-01-14 12:12:00,
2013-01-14 06:23:00,9.0,2.0,30.37,WSW,258,0.0,0.0,74,0.00,,,0.00,,2013-01-14 12:23:00,
2013-01-14 06:33:00,9.0,2.0,30.38,WSW,258,0.0,0.0,74,0.00,,,0.00,,2013-01-14 12:33:00,
2013-01-14 06:43:00,9.0,2.0,30.38,WSW,258,0.0,0.0,74,0.00,,,0.00,,2013-01-14 12:43:00,
2013-01-14 06:53:00,9.0,3.0,30.38,WSW,258,0.0,0.0,75,0.00,,,0.00,,2013-01-14 12:53:00,
2013-01-14 07:03:00,9.0,3.0,30.39,WSW,258,0.0,0.0,75,0.00,,,0.00,,2013-01-14 13:03:00,
2013-01-14 07:12:00,9.0,3.0,30.39,WSW,258,0.0,0.0,75,0.00,,,0.00,,2013-01-14 13:12:00,
2013-01-14 07:23:00,8.0,2.0,30.39,WSW,258,0.0,0.0,75,0.00,,,0.00,,2013-01-14 13:23:00,
2013-01-14 07:33:00,9.0,3.0,30.40,WSW,258,0.0,0.0,75,0.00,,,0.00,,2013-01-14 13:33:00,
2013-01-14 07:43:00,9.0,3.0,30.40,WSW,258,0.0,0.0,75,0.00,,,0.00,,2013-01-14 13:43:00,
2013-01-14 07:53:00,9.0,3.0,30.40,WSW,258,0.0,0.0,76,0.00,,,0.00,,2013-01-14 13:53:00,
2013-01-14 08:03:00,9.0,3.0,30.41,WSW,258,0.0,0.0,77,0.00,,,0.00,,2013-01-14 14:03:00,
2013-01-14 08:13:00,9.0,3.0,30.41,WSW,258,0.0,0.0,77,0.00,,,0.00,,2013-01-14 14:13:00,
2013-01-14 08:22:00,9.0,3.0,30.41,WSW,258,0.0,0.0,77,0.00,,,0.00,,2013-01-14 14:22:00,
2013-01-14 08:33:00,10.0,4.0,30.42,WSW,258,0.0,0.0,77,0.00,,,0.00,,2013-01-14 14:33:00,
2013-01-14 08:43:00,10.0,4.0,30.42,WSW,258,0.0,0.0,77,0.00,,,0.00,,2013-01-14 14:43:00,
2013-01-14 08:53:00,10.0,4.0,30.42,WSW,258,0.0,0.0,77,0.00,,,0.00,,2013-01-14 14:53:00,
2013-01-14 09:03:00,11.0,5.0,30.43,WSW,258,0.0,0.0,76,0.00,,,0.00,,2013-01-14 15:03:00,
2013-01-14 09:12:00,11.0,5.0,30.43,WSW,258,0.0,0.0,76,0.00,,,0.00,,2013-01-14 15:12:00,
2013-01-14 09:23:00,12.0,6.0,30.43,WSW,258,0.0,0.0,75,0.00,,,0.00,,2013-01-14 15:23:00,
2013-01-14 09:33:00,14.0,7.0,30.44,WSW,258,0.0,0.0,73,0.00,,,0.00,,2013-01-14 15:33:00,
2013-01-14 09:43:00,14.0,7.0,30.44,WSW,258,0.0,0.0,73,0.00,,,0.00,,2013-01-14 15:43:00,
2013-01-14 09:53:00,15.0,7.0,30.44,WSW,258,0.0,0.0,71,0.00,,,0.00,,2013-01-14 15:53:00,
2013-01-14 10:03:00,16.0,8.0,30.44,WSW,257,0.0,0.0,69,0.00,,,0.00,,2013-01-14 16:03:00,
2013-01-14 10:12:00,16.0,8.0,30.44,WSW,257,0.0,0.0,69,0.00,,,0.00,,2013-01-14 16:12:00,
2013-01-14 10:23:00,17.0,8.0,30.44,WSW,257,0.0,3.0,67,0.00,,,0.00,,2013-01-14 16:23:00,
2013-01-14 10:33:00,19.0,10.0,30.44,WSW,249,0.0,0.0,66,0.00,,,0.00,,2013-01-14 16:33:00,
2013-01-14 10:43:00,19.0,10.0,30.44,WSW,249,0.0,0.0,66,0.00,,,0.00,,2013-01-14 16:43:00,
2013-01-14 10:53:00,19.0,10.0,30.44,WSW,249,0.0,0.0,66,0.00,,,0.00,,2013-01-14 16:53:00,
2013-01-14 11:03:00,21.0,10.0,30.43,SSW,211,0.0,4.0,62,0.00,,,0.00,,2013-01-14 17:03:00,
2013-01-14 11:12:00,21.0,10.0,30.43,SSW,211,0.0,4.0,62,0.00,,,0.00,,2013-01-14 17:12:00,
2013-01-14 11:23:00,22.0,11.0,30.42,SSW,208,0.0,4.0,62,0.00,,,0.00,,2013-01-14 17:23:00,
2013-01-14 11:33:00,23.0,11.0,30.42,SSE,164,1.0,5.0,59,0.00,,,0.00,,2013-01-14 17:33:00,
2013-01-14 11:43:00,23.0,11.0,30.42,SSE,164,1.0,5.0,59,0.00,,,0.00,,2013-01-14 17:43:00,
2013-01-14 11:53:00,25.0,11.0,30.40,SSW,205,1.0,8.0,55,0.00,,,0.00,,2013-01-14 17:53:00,
2013-01-14 12:03:00,26.0,11.0,30.40,WSW,254,2.0,8.0,52,0.00,,,0.00,,2013-01-14 18:03:00,
2013-01-14 12:12:00,26.0,11.0,30.40,WSW,254,2.0,8.0,52,0.00,,,0.00,,2013-01-14 18:12:00,
2013-01-14 12:23:00,27.0,10.0,30.38,South,186,3.0,9.0,48,0.00,,,0.00,,2013-01-14 18:23:00,
2013-01-14 12:33:00,28.0,11.0,30.38,South,184,1.0,9.0,48,0.00,,,0.00,,2013-01-14 18:33:00,
2013-01-14 12:43:00,28.0,11.0,30.38,South,184,1.0,9.0,48,0.00,,,0.00,,2013-01-14 18:43:00,
2013-01-14 12:53:00,28.0,10.0,30.36,SSW,203,2.0,9.0,46,0.00,,,0.00,,2013-01-14 18:53:00,
2013-01-14 13:03:00,28.0,9.0,30.36,SSW,205,2.0,9.0,45,0.00,,,0.00,,2013-01-14 19:03:00,
2013-01-14 13:12:00,28.0,9.0,30.36,SSW,205,2.0,9.0,45,0.00,,,0.00,,2013-01-14 19:12:00,
2013-01-14 13:22:00,28.0,9.0,30.34,SSW,201,1.0,6.0,45,0.00,,,0.00,,2013-01-14 19:22:00,
2013-01-14 13:33:00,28.0,9.0,30.34,South,178,2.0,10.0,45,0.00,,,0.00,,2013-01-14 19:33:00,
2013-01-14 13:43:00,28.0,9.0,30.34,South,178,2.0,10.0,45,0.00,,,0.00,,2013-01-14 19:43:00,
2013-01-14 13:53:00,29.0,9.0,30.33,South,189,0.0,6.0,43,0.00,,,0.00,,2013-01-14 19:53:00,
2013-01-14 14:03:00,30.0,9.0,30.33,SSW,193,0.0,4.0,41,0.00,,,0.00,,2013-01-14 20:03:00,
2013-01-14 14:13:00,30.0,9.0,30.33,SSW,193,0.0,4.0,41,0.00,,,0.00,,2013-01-14 20:13:00,
2013-01-14 14:22:00,29.0,8.0,30.32,WSW,258,0.0,6.0,40,0.00,,,0.00,,2013-01-14 20:22:00,
2013-01-14 14:33:00,29.0,8.0,30.32,SW,223,0.0,7.0,40,0.00,,,0.00,,2013-01-14 20:33:00,
2013-01-14 14:42:00,29.0,8.0,30.32,SW,223,0.0,7.0,40,0.00,,,0.00,,2013-01-14 20:42:00,
2013-01-14 14:53:00,30.0,8.0,30.32,SSW,212,0.0,7.0,39,0.00,,,0.00,,2013-01-14 20:53:00,
2013-01-14 15:03:00,30.0,7.0,30.32,SW,223,1.0,7.0,37,0.00,,,0.00,,2013-01-14 21:03:00,
2013-01-14 15:12:00,30.0,7.0,30.32,SW,223,1.0,7.0,37,0.00,,,0.00,,2013-01-14 21:12:00,
2013-01-14 15:23:00,30.0,6.0,30.33,SSW,206,0.0,4.0,36,0.00,,,0.00,,2013-01-14 21:23:00,
2013-01-14 15:33:00,30.0,6.0,30.33,West,269,0.0,5.0,35,0.00,,,0.00,,2013-01-14 21:33:00,
2013-01-14 15:42:00,30.0,6.0,30.33,West,269,0.0,5.0,35,0.00,,,0.00,,2013-01-14 21:42:00,
2013-01-14 15:53:00,29.0,6.0,30.32,WSW,242,0.0,2.0,37,0.00,,,0.00,,2013-01-14 21:53:00,
2013-01-14 16:03:00,29.0,7.0,30.32,WSW,257,0.0,6.0,38,0.00,,,0.00,,2013-01-14 22:03:00,
2013-01-14 16:12:00,29.0,7.0,30.32,WSW,257,0.0,6.0,38,0.00,,,0.00,,2013-01-14 22:12:00,
2013-01-14 16:23:00,29.0,8.0,30.32,WSW,253,0.0,3.0,40,0.00,,,0.00,,2013-01-14 22:23:00,
2013-01-14 16:33:00,29.0,7.0,30.32,SSW,205,0.0,4.0,39,0.00,,,0.00,,2013-01-14 22:33:00,
2013-01-14 16:43:00,29.0,7.0,30.32,SSW,205,0.0,4.0,39,0.00,,,0.00,,2013-01-14 22:43:00,
2013-01-14 16:53:00,29.0,8.0,30.32,SSW,205,0.0,0.0,40,0.00,,,0.00,,2013-01-14 22:53:00,
2013-01-14 17:03:00,29.0,8.0,30.32,SSW,205,0.0,1.0,41,0.00,,,0.00,,2013-01-14 23:03:00,
2013-01-14 17:12:00,29.0,8.0,30.32,SSW,205,0.0,1.0,41,0.00,,,0.00,,2013-01-14 23:12:00,
2013-01-14 17:23:00,28.0,9.0,30.32,SSW,205,0.0,0.0,44,0.00,,,0.00,,2013-01-14 23:23:00,
2013-01-14 17:33:00,27.0,9.0,30.32,SSW,205,0.0,0.0,45,0.00,,,0.00,,2013-01-14 23:33:00,
2013-01-14 17:43:00,27.0,9.0,30.32,SSW,205,0.0,0.0,45,0.00,,,0.00,,2013-01-14 23:43:00,
2013-01-14 17:53:00,26.0,8.0,30.32,SSW,205,0.0,0.0,46,0.00,,,0.00,,2013-01-14 23:53:00,
2013-01-14 18:02:00,26.0,9.0,30.32,SSW,205,0.0,0.0,47,0.00,,,0.00,,2013-01-15 00:02:00,
2013-01-14 18:12:00,26.0,9.0,30.32,SSW,205,0.0,0.0,47,0.00,,,0.00,,2013-01-15 00:12:00,
2013-01-14 18:22:00,26.0,9.0,30.33,SSW,205,0.0,0.0,47,0.00,,,0.00,,2013-01-15 00:22:00,
2013-01-14 18:32:00,25.0,9.0,30.33,SSW,205,0.0,0.0,50,0.00,,,0.00,,2013-01-15 00:32:00,
2013-01-14 18:43:00,25.0,9.0,30.33,SSW,205,0.0,0.0,50,0.00,,,0.00,,2013-01-15 00:43:00,
2013-01-14 18:52:00,24.0,9.0,30.34,SSW,205,0.0,0.0,53,0.00,,,0.00,,2013-01-15 00:52:00,
2013-01-14 19:02:00,24.0,10.0,30.34,SSW,205,0.0,0.0,54,0.00,,,0.00,,2013-01-15 01:02:00,
2013-01-14 19:12:00,24.0,10.0,30.34,SSW,205,0.0,0.0,54,0.00,,,0.00,,2013-01-15 01:12:00,
2013-01-14 19:22:00,23.0,8.0,30.34,SSW,205,0.0,0.0,53,0.00,,,0.00,,2013-01-15 01:22:00,
2013-01-14 19:32:00,23.0,8.0,30.34,SSW,205,0.0,0.0,53,0.00,,,0.00,,2013-01-15 01:32:00,
2013-01-14 19:43:00,23.0,8.0,30.34,SSW,205,0.0,0.0,53,0.00,,,0.00,,2013-01-15 01:43:00,
2013-01-14 19:52:00,22.0,8.0,30.34,SSW,205,0.0,0.0,54,0.00,,,0.00,,2013-01-15 01:52:00,
2013-01-14 20:02:00,22.0,8.0,30.34,SSW,205,0.0,0.0,55,0.00,,,0.00,,2013-01-15 02:02:00,
2013-01-14 20:12:00,22.0,8.0,30.34,SSW,205,0.0,0.0,55,0.00,,,0.00,,2013-01-15 02:12:00,
2013-01-14 20:22:00,21.0,9.0,30.35,SSW,205,0.0,0.0,58,0.00,,,0.00,,2013-01-15 02:22:00,
2013-01-14 20:32:00,21.0,9.0,30.35,SSW,205,0.0,0.0,59,0.00,,,0.00,,2013-01-15 02:32:00,
2013-01-14 20:42:00,21.0,9.0,30.35,SSW,205,0.0,0.0,59,0.00,,,0.00,,2013-01-15 02:42:00,
2013-01-14 20:53:00,21.0,9.0,30.34,SSW,205,0.0,0.0,60,0.00,,,0.00,,2013-01-15 02:53:00,
2013-01-14 21:02:00,20.0,9.0,30.34,SSW,205,0.0,0.0,61,0.00,,,0.00,,2013-01-15 03:02:00,
2013-01-14 21:12:00,20.0,9.0,30.34,SSW,205,0.0,0.0,61,0.00,,,0.00,,2013-01-15 03:12:00,
2013-01-14 21:22:00,20.0,9.0,30.34,SSW,205,0.0,0.0,62,0.00,,,0.00,,2013-01-15 03:22:00,
2013-01-14 21:33:00,20.0,9.0,30.32,SSW,205,0.0,0.0,62,0.00,,,0.00,,2013-01-15 03:33:00,
2013-01-14 21:42:00,20.0,9.0,30.32,SSW,205,0.0,0.0,62,0.00,,,0.00,,2013-01-15 03:42:00,
2013-01-14 21:53:00,21.0,10.0,30.32,SSW,205,0.0,0.0,61,0.00,,,0.00,,2013-01-15 03:53:00,
2013-01-14 22:02:00,21.0,9.0,30.32,SSW,205,0.0,1.0,60,0.00,,,0.00,,2013-01-15 04:02:00,
2013-01-14 22:12:00,21.0,9.0,30.32,SSW,205,0.0,1.0,60,0.00,,,0.00,,2013-01-15 04:12:00,
2013-01-14 22:22:00,21.0,9.0,30.32,SSW,205,0.0,1.0,60,0.00,,,0.00,,2013-01-15 04:22:00,
2013-01-14 22:32:00,21.0,9.0,30.32,SSW,205,0.0,1.0,60,0.00,,,0.00,,2013-01-15 04:32:00,
2013-01-14 22:42:00,21.0,9.0,30.32,SSW,205,0.0,1.0,60,0.00,,,0.00,,2013-01-15 04:42:00,
2013-01-14 22:52:00,21.0,9.0,30.32,SSW,204,0.0,2.0,59,0.00,,,0.00,,2013-01-15 04:52:00,
2013-01-14 23:03:00,21.0,9.0,30.32,SSW,202,0.0,4.0,59,0.00,,,0.00,,2013-01-15 05:03:00,
2013-01-14 23:12:00,21.0,9.0,30.32,SSW,202,0.0,4.0,59,0.00,,,0.00,,2013-01-15 05:12:00,
2013-01-14 23:22:00,21.0,9.0,30.32,SSW,196,0.0,4.0,59,0.00,,,0.00,,2013-01-15 05:22:00,
2013-01-14 23:33:00,20.0,8.0,30.31,SSW,196,0.0,2.0,59,0.00,,,0.00,,2013-01-15 05:33:00,
2013-01-14 23:42:00,20.0,8.0,30.31,SSW,196,0.0,2.0,59,0.00,,,0.00,,2013-01-15 05:42:00,
2013-01-14 23:52:00,20.0,8.0,30.31,SSW,195,0.0,3.0,60,0.00,,,0.00,,2013-01-15 05:52:00,